Hourly Data Report for January 02, 2005

TORONTO CITY
ONTARIO

43°40'00.000" N
79°24'00.000" W
112.50 m
6158355
71508
XTO

Download Data

Hourly Data (January 2005)
Hourly Data Report for January 2, 2005
TIME
LST
Temp Definition
°C
Dew Point Definition
°C
Rel Hum Definition
%
Precip. Amount Definition
mm

Wind Dir Definition
10's deg

Wind Spd Definition
km/h
Visibility Definition
km
Stn Press Definition
kPa
Hmdx Definition


Wind Chill Definition


Weather Definition


00:00 0.8 -3.3 74   LegendMM LegendMM   102.09     LegendNANA
01:00 -0.3 -4.8 72   LegendMM LegendMM   102.07     LegendNANA
02:00 -1.0 -5.3 73   LegendMM LegendMM   102.03     LegendNANA
03:00 -1.0 -4.3 78   LegendMM LegendMM   101.97     LegendNANA
04:00 -1.0 -3.5 83   LegendMM LegendMM   101.89     LegendNANA
05:00 -0.9 -2.8 87   LegendMM LegendMM   101.77     LegendNANA
06:00 -0.8 -2.4 89   LegendMM LegendMM   101.63     LegendNANA
07:00 0.3 -1.1 90   LegendMM LegendMM   101.54     LegendNANA
08:00 0.7 0.0 95   LegendMM LegendMM   101.42     LegendNANA
09:00 1.0 0.5 96   LegendMM LegendMM   101.32     LegendNANA
10:00 1.0 0.7 98   LegendMM LegendMM   101.19     LegendNANA
11:00 1.4 1.1 98   LegendMM LegendMM   101.09     LegendNANA
12:00 1.9 1.7 99   LegendMM LegendMM   100.96     LegendNANA
13:00 2.5 2.3 99   LegendMM LegendMM   100.81     LegendNANA
14:00 3.6 3.4 99   LegendMM LegendMM   100.65     LegendNANA
15:00 3.6 3.3 98   LegendMM LegendMM   100.58     LegendNANA
16:00 3.7 3.5 99   LegendMM LegendMM   100.62     LegendNANA
17:00 4.4 4.2 99   LegendMM LegendMM   100.65     LegendNANA
18:00 5.2 5.1 99   LegendMM LegendMM   100.69     LegendNANA
19:00 6.5 6.4 99   LegendMM LegendMM   100.71     LegendNANA
20:00 7.1 6.9 99   LegendMM LegendMM   100.74     LegendNANA
21:00 6.1 5.8 98   LegendMM LegendMM   100.81     LegendNANA
22:00 6.3 5.6 95   LegendMM LegendMM   100.90     LegendNANA
23:00 5.1 3.7 91   LegendMM LegendMM   100.95     LegendNANA

Notes on Data Quality.

Legend

  • E = Estimated
  • M = Missing
  • NA = Not Available*
  • [empty] = Indicates an unobserved value
Date modified: